Find Starlink 32821

NORAD ID: 63078 Int'l Des: 2025-037 Owner: SPXS Country: US Constellation: starlink operational
LEOCIRCULAR

現在のビュー

3D地球を読み込み中...

About Starlink 32821

Starlink 32821 (NORAD 63078) is a starlink constellation satellite (v2 mini) launched Feb 23, 2025 by SPXS of US. It operates in LEO, CIRCULAR orbit with a mass of 730.00 kg.

次回通過

Passes for default location (London). Set your location on the main map for personalized predictions.

高度履歴

Loading altitude history...

軌道要素

1 63078U 25037B 26264.26109003 .00019627 00000-0 68514-3 0 9994
2 63078 70.0002 219.0834 0002964 274.0154 86.0683 15.29593716 87932
Epoch: Sep 21, 2026 • Age: 7 hours

現在のステータス

高度 484.1 km
遠地点 / 近地点 N/A
速度 7.62 km/s
衛星直下点 -22.16°S, 155.13°W
打ち上げ日 Feb 23, 2025
運用期間 1.5 years
タイプ internet

技術仕様

分類 Payload
質量 730.00 kg
乾燥質量 700.00 kg
長さ 0.30 m
スパン 29.00 m
形状 ? Box + pan
製造者 SPXS
バスタイプ Starlink V2M
フェーズステータス In Orbit
所有者/国 SPXS/US

Most Searched